Location: S�deilles
(46.7500°N, 6.9329°E)
Time: 11:55:51
(UTC+00:00)

CENTAUR R/B - Pass Details

Date: 08 March 2021
Orbit: 742 x 1446 km, 63.4° (Epoch: 18 April)

Event Time Altitude Azimuth Distance (km) Brightness Sun altitude
Rises 20:15:35 0° 228° (SW) 3,410 5.6 -28.7°
Reaches altitude 10° 20:17:54 10° 231° (SW) 2,553 4.9 -29.0°
Maximum altitude 20:23:50 67° 314° (NW) 1,082 2.8 -29.9°
Drops below altitude 10° 20:31:00 10° 37° (NE) 3,057 5.0 -31.0°
Sets 20:34:01 0° 40° (NE) 4,131 5.7 -31.4°
